Regional Weather Roundup
Issued by NWS

Home | Current Version | Previous Version | Text Only | Print | Product List | Glossary Off
Versions: 1 2 3 4 5 6 7 8 9 10 11 12 13 14 15 16 17 18 19 20 21 22 23 24 25 26 27 28 29 30 31 32 33 34 35 36 37 38 39 40 41 42 43 44 45 46 47 48 49 50

000
ASUS43 KOAX 282110
RWRNE

WEATHER ROUNDUP FOR NEBRASKA
NATIONAL WEATHER SERVICE OMAHA NE
400 PM CDT MON JUL 28 2014

NOTES: SATELLITE DATA IS BEING USED TO AUGMENT CLOUD COVER ABOVE
       12000 FEET.
       "FAIR" INDICATES FEW OR NO CLOUDS BELOW 12,000 FEET WITH NO
       SIGNIFICANT WEATHER AND/OR OBSTRUCTIONS TO VISIBILITY.

  * THESE STATIONS DO NOT REPORT WEATHER SUCH AS RAIN...SNOW OR FOG.

NEZ001>004-019>022-054>056-282200-
NEBRASKA PANHANDLE

CITY           SKY/WX    TMP DP  RH WIND       PRES   REMARKS
SCOTTSBLUFF    SUNNY     88  60  38 E10       30.25F
ALLIANCE       SUNNY     86  56  35 VRB5      30.26F
CHADRON        SUNNY     87  56  34 E9        30.23F
KIMBALL        SUNNY     86  52  30 SE12      30.28F
SIDNEY         SUNNY     90  54  29 SE12G18   30.27F
$$

NEZ057>060-069>072-079>082-282200-
SOUTHWEST NEBRASKA

CITY           SKY/WX    TMP DP  RH WIND       PRES   REMARKS
NORTH PLATTE   SUNNY     83  58  42 E8        30.25F
IMPERIAL       MOSUNNY   89  56  32 E10       30.24F
LEXINGTON      SUNNY     81  56  41 E3        30.27S
MCCOOK         MOSUNNY   88  57  34 S9        30.23F
OGALLALA       SUNNY     83  58  42 SE12      30.25F
$$

NEZ005>010-023>029-035>040-094-282200-
NORTH CENTRAL NEBRASKA

CITY           SKY/WX    TMP DP  RH WIND       PRES   REMARKS
VALENTINE      SUNNY     81  52  36 SE6       30.28F
AINSWORTH      SUNNY     77  51  40 CALM      30.29S
BROKEN BOW     PTSUNNY   80  56  43 NW3       30.27F
O`NEILL        SUNNY     77  47  34 N8        30.28S
ORD            MOSUNNY   79  54  41 NE6       30.26F
THEDFORD       CLOUDY    79  56  44 E7        30.29S
$$

NEZ041-046>049-061>064-073>077-083>087-282200-
SOUTH CENTRAL NEBRASKA

CITY           SKY/WX    TMP DP  RH WIND       PRES   REMARKS
GRAND ISLAND   CLOUDY    76  55  48 N3        30.27F
AURORA         MOSUNNY   77  56  49 N5        30.27F
HASTINGS       MOSUNNY   77  55  46 VRB5      30.27F
HEBRON         PTSUNNY   78  53  42 N6        30.25F
HOLDREGE       SUNNY     79  56  46 CALM      30.27F
KEARNEY *      SUNNY     79  55  44 NE6       30.27F
YORK           PTSUNNY   75  57  53 N13       30.27F
$$

NEZ011>018-030>034-042>045-282200-
NORTHEAST NEBRASKA

CITY           SKY/WX    TMP DP  RH WIND       PRES   REMARKS
NORFOLK        SUNNY     77  52  41 N13G18    30.26F
ALBION         MOSUNNY   72  53  51 N5        30.28S
BLAIR          PTSUNNY   74  55  51 NW6       30.23F
COLUMBUS *     PTSUNNY   73  54  49 NW8       30.26F
FREMONT        MOSUNNY   79  52  39 NW8       30.24F
TEKAMAH        PTSUNNY   80  56  43 N8        30.22F
WAYNE          MOSUNNY   76  56  50 NW8       30.25F
$$

NEZ050>053-065>068-078-088>093-282200-
SOUTHEAST NEBRASKA

CITY           SKY/WX    TMP DP  RH WIND       PRES   REMARKS
LINCOLN        MOSUNNY   78  52  40 N14       30.25F
OMAHA EPPLEY   MOSUNNY   78  54  43 N8        30.22F
BEATRICE       PTSUNNY   75  58  54 N7        30.24F
FALLS CITY     MOSUNNY   78  57  48 NW8       30.21F
NEBRASKA CITY  SUNNY     76  53  44 N9        30.23F
PLATTSMOUTH    MOSUNNY   77  51  41 NW7       30.22F
$$

NEZ044-045-051>053-067-282200-
OMAHA AREA

CITY           SKY/WX    TMP DP  RH WIND       PRES   REMARKS
OMAHA EPPLEY   MOSUNNY   78  54  43 N8        30.22F
BLAIR          PTSUNNY   74  55  51 NW6       30.23F
FREMONT        MOSUNNY   79  52  39 NW8       30.24F
MILLARD        MOSUNNY   75  56  51 N5        30.22F
OFFUTT AFB     MOSUNNY   77  55  46 N6        30.21F
PLATTSMOUTH    MOSUNNY   77  51  41 NW7       30.22F
WAHOO          FAIR      78  54  43 NW7       30.24F
$$


USA.gov is the U.S. government's official web portal to all federal, state and local government web resources and services.